Location: B?l�
(48.7957°N, 13.9630°E)
Time: 22:10:12
(UTC+00:00)

Daily predictions for brighter satellites

Satellite Brightness Start Highest point End
(mag) Time Altitude Azimuth Time Altitude Azimuth Time Altitude Azimuth
OBJECT-B 3.8 19:53:15 10° WSW 19:54:42 13° W 19:56:11 10° WNW
MetOp-B 4.2 19:51:05 10° SSE 19:56:26 87° WSW 20:01:50 10° NNW
Cosmos 1452 Rocket 4.0 19:52:21 10° S 19:57:15 41° ESE 20:02:11 10° NE
SL-23 DEB 4.2 19:57:57 10° W 20:01:27 76° NNW 20:06:55 10° ENE
SPOT 1/Viking Rocket 3.6 19:56:46 10° SSE 20:01:54 88° ENE 20:07:05 10° NNW
Cosmos 2056 Rocket 3.9 19:57:10 10° SSW 20:02:21 70° WNW 20:07:41 10° NNE
ATLAS CENTAUR R/B 3.4 19:59:28 10° NNW 20:02:51 23° NE 20:06:23 10° E
Cosmos 2219 Rocket 4.1 20:01:27 10° ESE 20:02:52 11° E 20:04:17 10° E
Cosmos 1850 Rocket 4.3 20:00:52 10° NNW 20:06:09 59° ENE 20:11:19 10° SE
Cosmos 1727 Rocket 4.1 20:02:57 10° S 20:09:12 67° E 20:15:26 10° NNE
SPOT 5 3.4 20:04:58 10° SE 20:10:00 52° ENE 20:14:49 10° N
Okean 1 Rocket 3.6 20:07:21 10° NNW 20:11:38 57° W 20:15:56 10° S
Cosmos 1605 Rocket 4.5 20:06:51 10° NNW 20:13:11 65° W 20:19:28 10° S
Cosmos 292 Rocket 3.8 20:08:32 10° SSW 20:13:20 72° ESE 20:18:10 10° NNE
NOSS 3-2 (C) 3.4 20:07:56 10° SW 20:13:34 80° SE 20:20:09 10° NE
NOSS 3-2 (A) 3.8 20:08:07 10° SW 20:13:49 69° NW 20:20:28 10° NE
Cosmos 1455 Rocket 3.4 20:11:30 10° N 20:15:54 54° ENE 20:20:03 11° SSE
Cosmos 2285 Rocket 4.1 20:10:54 10° SSW 20:17:20 90° ESE 20:23:49 10° NNE
Geosat 4.1 20:12:38 10° SSE 20:17:40 83° WSW 20:22:44 10° NNW
Cosmos 1626 3.4 20:15:41 12° SE 20:18:23 24° E 20:21:24 10° NE
SL-16 R/B 2.2 20:14:15 10° SSW 20:19:53 76° ESE 20:25:35 10° NNE
KORONAS-FOTON 4.2 20:16:24 10° SSE 20:20:02 44° E 20:23:40 10° NNE
Spot 2 Rocket 3.5 20:15:24 10° SSE 20:20:28 89° WSW 20:25:35 10° NNW
Cosmos 1420 Rocket 4.3 20:16:54 10° SSW 20:22:04 73° WNW 20:27:19 10° NNE
Cosmos 1802 Rocket 4.4 20:16:34 10° N 20:22:39 51° ENE 20:28:20 12° SSE
Meteor 2-20 Rocket 4.5 20:16:35 10° S 20:22:41 76° E 20:28:47 10° NNE
Cosmos 2360 Rocket 2.7 20:17:53 10° S 20:23:05 39° ESE 20:28:18 10° NE
Cosmos 2322 Rocket 2.2 20:17:52 10° SSW 20:23:30 65° ESE 20:29:10 10° NNE
ATLAS 3B R/B 3.8 20:18:47 10° SSE 20:23:32 22° ESE 20:28:24 10° ENE
Lacrosse 5 2.4 20:18:55 10° WNW 20:23:48 49° SW 20:28:12 13° SSE
Cosmos 1470 4.2 20:21:27 10° NNW 20:25:07 36° W 20:28:46 10° SSW
Meteor 1-16 Rocket 4.2 20:21:14 10° N 20:26:47 72° ENE 20:31:47 12° SSE
Terra 2.2 20:22:54 12° SE 20:27:08 52° ENE 20:31:47 10° N
Genesis I 3.2 20:25:33 10° SW 20:29:25 88° NW 20:33:23 10° NE
ERS-1 Rocket 3.0 20:24:47 11° SSE 20:29:34 77° ENE 20:34:38 10° NNW
Cosmos 1315 Rocket 4.1 20:26:22 10° NNW 20:30:15 39° W 20:34:05 10° SSW
FALCON 9 DEB 4.2 20:28:33 10° SSW 20:31:22 24° SE 20:34:11 10° E
COSMOS 2428 4.3 20:31:39 12° SE 20:34:26 17° E 20:37:57 10° ENE
Cosmos 1741 Rocket 4.1 20:32:21 10° NNW 20:37:38 84° WSW 20:42:13 14° SSE
Cosmos 2237 4.2 20:34:01 10° SSW 20:39:37 63° ESE 20:45:15 10° NNE
USA 215 3.8 20:36:54 10° ENE 20:42:48 35° SE 20:48:40 10° SSW
Cosmos 1980 Rocket 4.4 20:38:18 10° WSW 20:43:08 28° NW 20:47:59 10° NNE
Cosmos 2278 Rocket 4.1 20:40:35 10° N 20:44:59 22° NE 20:49:21 10° E
Cosmos 1674 2.6 20:41:20 10° S 20:45:03 88° E 20:48:47 10° N
Cosmos 1459 Rocket 3.9 20:39:41 10° N 20:45:47 87° E 20:51:15 13° S
Resurs 01 Rocket 3.9 20:43:22 10° SW 20:46:34 20° W 20:49:49 10° NW
USA 238 DEB 4.3 20:42:34 10° WSW 20:49:05 60° NW 20:56:00 10° NE
USA 238 4.3 20:42:40 10° WSW 20:49:11 61° NW 20:56:06 10° NE
Cosmos 1300 3.7 20:45:55 10° N 20:49:27 34° ENE 20:51:46 18° SE
Meteor 2-5 Rocket 4.5 20:48:06 16° SSE 20:51:55 35° E 20:56:56 10° NNE
Cosmos 1000 Rocket 4.4 20:47:09 10° S 20:53:18 84° E 20:59:28 10° N
Cosmos 2061 Rocket 4.2 20:48:38 10° N 20:55:06 69° ENE 21:00:14 16° SSE
Cosmos 1844 Rocket 2.7 20:54:26 10° NNW 21:00:08 80° WSW 21:04:26 18° SSE
Cosmos 1025 Rocket 3.0 20:57:16 14° S 21:01:02 78° E 21:05:25 10° NNE
Lacrosse 5 rocket 1.9 20:59:58 19° S 21:01:42 28° SE 21:04:48 10° ENE
CENTAUR R/B 3.5 20:58:31 10° WSW 21:04:33 53° NW 21:11:48 10° NE
Cosmos 1908 3.8 21:01:06 10° NNW 21:04:54 52° W 21:07:53 15° SSW
Cosmos 1864 Rocket 4.5 20:59:47 10° N 21:06:02 77° E 21:10:46 18° SSE
Cosmos 1975 Rocket 3.8 21:02:48 10° SSW 21:07:02 51° WNW 21:11:20 10° N
SL-8 R/B 3.7 21:04:35 10° W 21:09:20 63° SSW 21:13:04 16° ESE
Cosmos 2228 4.3 21:05:42 10° N 21:09:37 30° ENE 21:12:12 17° ESE
Cosmos 2263 Rocket 4.5 21:08:28 10° WNW 21:11:48 16° W 21:15:07 10° SW
Cosmos 1340 2.7 21:11:35 22° S 21:13:52 64° E 21:17:37 10° NNE
Cosmos 2123 Rocket 4.0 21:08:51 14° S 21:14:19 77° E 21:20:40 10° NNE
Cosmos 1953 3.6 21:12:58 10° NNW 21:16:43 36° W 21:20:00 13° SSW
Cosmos 2333 4.3 21:12:00 13° S 21:17:01 58° ESE 21:22:38 10° NE
USA 267 3.6 21:11:20 10° ESE 21:17:48 68° NNE 21:24:19 10° NW
Cosmos 1110 Rocket 4.0 21:13:24 10° SSW 21:18:35 85° WNW 21:23:50 10° NNE
GEOS 3 Rocket 3.7 21:19:40 19° SE 21:23:40 86° NE 21:29:02 10° NW
Cosmos 1461 3.5 21:19:44 10° NW 21:23:47 45° WSW 21:25:52 24° S
ARIANE 5 R/B 4.4 21:20:53 10° SSW 21:24:32 25° W 21:28:13 10° NW
Cosmos 2233 Rocket 4.1 21:18:25 10° N 21:24:34 68° ENE 21:28:46 21° SSE
Cosmos 2333 Rocket 2.4 21:21:56 16° S 21:26:23 56° ESE 21:32:00 10° NE
SL-14 R/B 3.3 21:26:32 20° SSW 21:29:18 81° W 21:33:22 10° N
Cosmos 968 Rocket 3.7 21:25:16 10° NNW 21:30:21 62° ENE 21:33:36 22° SE
Cosmos 405 3.2 21:31:08 10° NNW 21:34:33 59° W 21:36:09 28° SSW
Cosmos 1726 Rocket 4.5 21:35:43 10° N 21:39:56 39° ENE 21:42:13 22° SE
Cosmos 1844 4.2 21:35:11 10° NW 21:40:31 48° WSW 21:43:57 21° S
ATLAS CENTAUR R/B 1.5 21:37:51 10° NW 21:42:10 77° SW 21:44:31 28° SSE
Meteor 1-24 Rocket 3.6 21:40:46 23° S 21:44:12 74° E 21:49:40 10° NNE
Cosmos 2219 Rocket 2.2 21:41:31 18° SSW 21:45:44 68° ESE 21:51:23 10° NNE
ALOS 2 3.4 21:50:57 23° SE 21:53:16 42° ENE 21:57:26 10° N
Cosmos 1626 4.0 21:50:20 10° SW 21:53:29 27° WNW 21:56:41 10° NNW
Cosmos 1606 Rocket 3.7 21:49:07 10° N 21:53:35 66° ENE 21:55:43 30° SSE
Cosmos 1892 Rocket 4.4 21:55:04 26° SE 21:56:46 36° E 22:00:51 10° NNE
Meteor 2-10 Rocket 3.4 21:54:02 10° NNW 21:59:12 86° WSW 22:01:54 28° S
Cosmos 2237 Rocket 3.3 21:57:16 23° SE 21:59:18 28° ESE 22:04:01 10° NE
SJ 16-02 4.0 21:59:15 10° NNE 22:01:09 12° NE 22:03:03 10° ENE
BREEZE-M DEB (TANK) 3.5 22:00:24 10° W 22:03:39 88° N 22:13:38 10° E
SL-16 R/B 4.4 22:00:02 10° W 22:04:38 25° NW 22:09:14 10° N
Terra 3.7 22:01:47 11° SW 22:05:11 22° W 22:08:51 10° NW
BREEZE-M DEB (TANK) 3.5 21:56:58 10° SW 22:06:00 40° SSE 22:09:10 10° E
Cosmos 1464 Rocket 4.4 22:00:33 10° N 22:06:48 56° ENE 22:10:43 23° SE
Iridium 2 3.8 22:05:48 37° SSE 22:07:02 61° E 22:10:45 10° NNE
Cosmos 2360 Rocket 3.4 22:01:46 10° WSW 22:07:05 41° NW 22:12:25 10° NNE
FALCON 9 DEB 3.2 22:04:35 10° WSW 22:08:00 75° NNW 22:11:25 10° ENE
Cosmos 2322 Rocket 4.2 22:03:10 10° WSW 22:08:01 28° NW 22:12:55 10° NNE
Cosmos 1503 Rocket 4.3 22:05:58 10° NNW 22:11:19 63° ENE 22:14:30 25° SE
ATLAS 3B R/B 2.6 22:06:47 10° SW 22:13:21 88° NW 22:20:12 10° NE
CZ-3B R/B 4.4 21:47:13 10° WSW 22:17:04 79° NNW 22:22:40 10° ENE
COSMOS 2428 2.7 22:13:36 18° SSW 22:17:55 88° WNW 22:23:43 10° NNE
Cosmos 1455 2.2 22:14:24 10° N 22:18:15 71° E 22:19:32 39° SSE
Cosmos 1867 3.5 22:14:50 10° NW 22:20:22 81° SW 22:23:22 28° SSE
Cosmos 2322 4.2 22:16:35 10° SW 22:22:10 60° WNW 22:27:48 10° NNE
BREEZE-M DEB (TANK) 2.6 22:19:16 10° WSW 22:22:25 87° SSE 22:31:08 10° ENE
ATLAS CENTAUR R/B 3.8 22:21:00 26° SSE 22:23:26 35° ESE 22:33:53 10° NE
FALCON 9 DEB 3.8 22:24:44 34° ESE 22:24:44 34° ESE 22:26:56 10° ENE
Cosmos 1607 4.1 22:19:29 10° NW 22:25:58 73° NE 22:30:46 18° SE
USA 215 3.3 22:19:42 10° NE 22:26:16 85° NNW 22:32:49 10° WSW
Cosmos 1346 Rocket 3.2 22:27:17 29° SW 22:29:08 59° WNW 22:33:08 10° N
Cosmos 2278 Rocket 2.2 22:24:07 10° NNW 22:29:49 87° WSW 22:32:55 28° SSE
Cosmos 389 Rocket 3.4 22:32:48 10° NNW 22:35:57 35° W 22:36:46 30° SW
SL-4 R/B 3.7 22:37:34 17° ESE 22:37:34 17° ESE 22:38:58 10° E
Meteor 1-4 Rocket 3.8 22:34:29 10° N 22:37:39 31° ENE 22:38:51 24° ESE
Cosmos 2034 Rocket 4.1 22:33:21 10° N 22:39:34 67° ENE 22:43:07 26° SSE
Lacrosse 5 rocket 1.8 22:37:04 10° WSW 22:40:36 51° NNW 22:44:06 10° NE
Uosat 12 SS-18 rocket 4.3 22:41:41 20° SW 22:44:45 76° NW 22:49:55 10° NE
Okean 1-7 Rocket 3.7 22:44:49 36° SSE 22:46:32 68° E 22:50:58 10° NNE
GENESIS II 4.5 22:45:53 42° SSE 22:46:33 47° ESE 22:50:19 10° NE
Cosmos 2228 4.4 22:43:15 10° NNW 22:47:07 30° W 22:49:02 22° SW
FALCON 9 DEB 2.7 22:47:10 53° WSW 22:47:48 86° SSE 22:50:55 10° ENE
FALCON 9 DEB 2.7 22:48:40 70° S 22:48:48 72° SSE 22:51:56 10° ENE
Meteor 2-1 Rocket 4.1 22:47:20 10° NNW 22:52:51 79° W 22:55:36 31° S
FALCON 9 DEB 2.7 22:55:40 44° WSW 22:56:31 87° NNW 22:59:39 10° ENE
USA 267 3.5 22:57:24 26° SSE 23:01:00 51° SW 23:07:21 10° WNW
Cosmos 1703 3.2 23:00:14 42° SSW 23:01:29 86° W 23:05:27 10° N
Cosmos 1777 Rocket 4.1 22:58:48 10° NNW 23:04:07 74° ENE 23:07:10 26° SSE
Tsikada Rocket 4.2 23:01:05 28° SSE 23:04:25 61° E 23:10:30 10° NNE
Cosmos 2058 Rocket 3.6 23:00:37 10° NNW 23:04:56 49° W 23:06:34 32° SSW
Cosmos-2242 4.4 23:02:16 10° N 23:06:16 32° ENE 23:08:47 19° SE
Cosmos 1354 Rocket 4.3 23:01:21 10° NNW 23:06:35 57° WSW 23:08:54 32° S
Cosmos 1328 3.7 23:06:47 43° SSE 23:07:54 70° E 23:11:48 10° NNE
Cosmos 1441 Rocket 3.2 23:07:22 42° SSW 23:08:35 80° WNW 23:12:27 10° N
Cosmos 1980 3.7 23:05:28 26° SSW 23:08:49 86° WNW 23:14:33 10° NNE
Cosmos 1812 Rocket 3.9 23:04:58 10° N 23:09:16 56° ENE 23:11:12 30° SE
Cosmos 2333 Rocket 3.8 23:05:54 10° WSW 23:10:59 31° NW 23:16:04 10° NNE
GP-B 3.2 23:09:12 10° N 23:13:39 68° E 23:15:26 35° SSE
Aureole 3 3.9 23:13:55 10° N 23:17:17 47° ENE 23:18:57 28° SE
Cosmos 1943 Rocket 2.8 23:13:28 10° NNW 23:18:51 51° NE 23:23:45 12° SE
ATLAS CENTAUR R/B 3.8 23:18:55 10° W 23:20:25 11° WSW 23:20:38 11° WSW
Cosmos 1184 Rocket 4.3 23:27:00 23° WSW 23:27:59 27° WNW 23:30:51 10° N
ALOS 2 4.2 23:28:20 19° WSW 23:29:47 23° W 23:33:18 10° NW
Cosmos 2219 Rocket 4.0 23:25:23 10° WSW 23:30:10 27° NW 23:34:59 10° NNE
EO 1 Del DPAF 3.3 23:30:23 10° NNE 23:34:05 61° ESE 23:35:10 40° SSE
SL-16 R/B 2.4 23:34:20 29° S 23:37:05 57° ESE 23:42:39 10° NE
Resurs 1-4 Rocket 3.9 23:34:29 10° NE 23:38:32 22° E 23:41:58 12° SE
SJ 16-02 1.3 23:36:07 10° NNW 23:40:32 79° ENE 23:42:45 28° SSE
Cosmos 1825 Rocket 4.3 23:38:56 27° SSE 23:40:56 46° E 23:45:13 10° NNE
Cosmos 2237 Rocket 2.7 23:39:03 19° SW 23:43:03 54° NW 23:48:36 10° NNE
CZ-2D R/B 3.8 23:39:25 10° NE 23:43:28 22° E 23:46:50 13° SE
Cosmos 724 4.3 23:38:23 10° NW 23:44:36 80° SW 23:49:11 18° SSE
PSLV R/B 3.8 23:48:08 10° N 23:52:21 60° WNW 23:54:21 30° SW
Cosmos 2369 Rocket 3.0 23:48:02 10° NNW 23:53:39 52° NE 23:59:12 10° SE
Cosmos 1825 3.9 23:52:24 17° SE 23:54:12 25° E 23:57:19 10° NE
